Theta_e
332 335 333 332 333 332 331 331 331 334 334 333 332 329 333 337 328 327 340 341 335 338 340 337 337 338 336 338 338 339 339 338 338 339 339 338 338 338 337 338 340 341 341 344 347 346 346 347 347 349 350 351 351 350 350 351 352 353 355 355 356 356 355 356 356 355 355 355 355 355 355 355 355 357 357 357 357 356 355 355 354 354 355 356 357 357 357
332 334 333 334 333 331 332 334 334 336 336 335 335 335 336 337 333 334 339 338 337 339 338 337 337 336 337 337 337 337 339 339 339 338 338 338 337 336 336 337 340 341 342 343 345 345 346 345 345 348 349 350 351 350 351 351 351 353 354 354 355 355 355 356 356 356 356 356 355 355 355 355 355 356 355 356 356 356 355 355 355 354 354 355 355 355 357
328 332 332 332 332 331 331 332 335 336 335 335 335 335 336 336 335 338 339 336 335 336 337 337 336 336 337 335 334 337 338 338 338 338 338 338 337 337 336 335 337 339 341 343 344 345 346 345 345 347 348 349 350 351 351 351 351 353 354 354 353 352 353 353 354 355 355 355 354 354 353 354 354 354 354 354 354 353 353 353 353 353 352 353 353 354 355
323 329 329 328 331 330 328 329 333 334 333 333 334 336 336 335 335 337 335 331 333 336 336 336 336 336 335 333 334 335 335 336 337 336 336 336 336 337 336 336 337 337 338 341 344 345 345 345 345 345 347 348 349 351 352 351 352 353 354 353 351 351 351 351 352 353 353 353 353 352 352 353 352 352 352 351 350 350 351 351 352 353 352 352 352 353 354
319 327 328 327 327 324 323 327 332 335 336 335 334 335 336 336 336 334 330 330 335 337 335 334 335 333 333 334 333 332 334 336 336 334 334 334 334 335 336 337 337 337 337 339 342 344 344 344 344 345 346 348 348 350 351 351 352 354 354 353 352 351 351 350 351 352 351 352 351 351 351 351 351 351 349 349 349 350 350 351 351 351 352 351 351 352 352
318 325 328 326 323 321 325 332 333 334 335 335 334 334 334 335 335 334 333 334 335 335 333 333 333 332 332 332 331 331 333 335 334 334 333 333 333 333 334 335 336 337 338 338 340 343 344 343 343 344 345 347 348 349 350 351 353 354 354 353 352 352 352 351 352 351 350 351 350 351 351 350 350 350 349 349 350 350 351 351 350 350 350 349 349 349 348
319 324 325 321 321 325 331 334 333 333 333 333 334 335 334 334 334 334 334 332 332 333 332 331 331 332 332 331 330 331 332 333 333 333 332 333 333 333 333 334 335 337 338 338 340 344 344 343 343 343 345 347 347 348 350 352 353 354 354 354 353 353 352 351 351 350 350 350 350 351 352 351 351 351 350 351 351 351 352 351 350 349 349 348 347 345 346
321 321 320 322 327 333 334 332 332 332 332 332 331 330 332 334 333 332 332 330 331 331 330 330 330 331 331 330 330 331 331 331 331 331 331 332 332 333 333 333 334 336 336 337 341 343 344 344 343 343 345 346 347 348 350 351 352 353 353 353 352 352 353 352 352 352 351 352 352 352 352 352 351 350 350 350 350 351 351 350 349 349 349 349 347 345 345
322 317 318 327 331 331 332 333 332 331 330 331 330 328 331 333 331 330 331 331 330 330 330 330 331 331 331 331 332 333 332 331 330 330 331 332 332 333 332 332 333 335 335 336 339 341 343 345 344 343 344 345 347 348 350 351 352 350 349 348 347 349 354 355 354 354 354 354 354 353 352 351 349 348 348 349 349 349 348 348 349 349 348 349 349 348 348
323 318 318 323 325 326 330 332 331 329 328 329 330 329 330 332 330 329 330 331 331 330 330 330 330 331 332 331 331 333 331 330 330 330 331 332 333 332 332 332 333 333 334 335 337 339 342 344 344 343 344 344 346 348 349 351 351 345 342 344 343 344 352 357 356 356 356 354 354 353 351 349 347 346 346 347 348 348 347 348 349 349 349 350 350 350 350
322 319 317 318 321 327 334 332 330 329 327 327 329 327 327 331 331 329 330 330 330 330 330 330 330 331 331 331 330 329 329 329 329 330 331 332 332 332 332 333 332 333 334 335 336 338 340 341 342 343 343 344 345 347 348 350 351 344 340 344 345 343 348 356 357 356 355 353 352 352 350 348 346 344 345 347 348 348 347 347 348 348 349 350 351 350 349
320 319 316 318 324 331 334 330 329 328 326 327 328 327 328 331 330 329 329 329 329 330 330 330 330 331 331 331 329 327 327 328 329 330 331 331 332 332 332 332 332 333 333 334 336 337 337 340 342 342 342 343 344 346 346 346 349 346 342 345 347 345 349 354 355 355 354 352 351 351 349 348 346 345 346 348 349 348 347 347 348 348 348 349 349 349 348
319 318 316 319 328 333 332 329 329 328 327 329 329 328 331 332 329 329 330 329 329 329 329 330 330 330 330 330 328 327 328 327 328 329 330 331 331 331 331 332 332 333 333 334 335 335 335 338 340 341 342 342 343 345 345 345 346 346 345 346 345 345 350 354 354 354 354 352 351 351 350 348 347 348 350 350 350 349 349 348 347 347 347 347 348 348 347
320 320 318 319 326 332 330 328 329 328 328 330 331 331 332 331 329 329 329 328 329 329 329 330 330 329 329 329 328 328 327 326 328 329 330 330 330 331 331 332 332 333 333 333 334 334 335 336 339 341 342 342 342 344 345 345 344 345 346 347 347 348 350 352 353 355 355 353 352 351 350 349 348 350 352 351 351 351 350 347 346 346 347 348 347 347 347
322 320 319 320 325 331 330 327 330 330 329 331 332 331 330 329 329 329 328 329 329 328 328 329 329 329 329 329 328 328 327 327 328 329 329 330 330 331 331 331 332 333 333 333 333 334 334 335 338 341 342 342 342 342 343 343 343 344 346 347 347 349 351 351 353 354 354 353 352 350 350 349 349 350 352 352 352 351 350 348 347 347 347 347 347 347 347
324 320 322 325 328 331 329 328 331 332 330 330 331 330 330 330 329 329 329 329 329 329 329 329 329 329 329 328 327 327 327 327 328 329 330 330 330 331 331 331 331 332 333 334 334 333 334 335 338 340 343 343 342 342 343 342 342 344 345 346 347 348 350 351 352 352 352 352 351 350 349 348 348 350 351 351 351 351 350 348 348 347 347 346 346 346 346
327 326 329 331 331 330 328 328 330 330 329 329 328 328 328 328 328 328 329 329 329 329 329 329 329 329 328 326 326 327 326 326 327 329 330 330 330 331 331 331 332 332 332 333 333 333 335 336 337 340 343 345 343 342 342 343 342 343 344 345 345 344 346 350 352 351 351 350 350 350 349 347 348 348 350 351 351 350 350 348 348 348 347 346 346 346 345
328 328 330 330 330 330 329 328 328 329 328 327 327 327 327 327 328 328 328 328 329 328 328 328 328 328 326 326 326 326 326 326 328 329 330 329 330 331 331 331 332 332 332 333 333 333 334 335 337 339 342 345 345 343 342 343 342 342 343 345 345 342 342 346 348 349 350 350 349 349 348 347 347 348 349 351 351 351 350 348 348 348 347 346 346 345 345
327 328 330 330 330 331 330 329 328 329 329 328 327 327 327 327 328 328 328 328 328 328 328 329 329 328 327 326 327 327 326 327 328 329 330 330 330 331 331 331 331 332 332 332 332 333 334 335 336 338 340 344 344 344 344 343 342 341 342 344 346 343 340 342 343 344 347 350 349 348 348 348 348 348 349 351 351 351 350 348 347 348 347 346 346 345 345
328 330 331 330 329 329 329 329 328 328 328 328 327 327 327 327 327 328 328 328 327 327 328 328 329 328 327 326 327 327 326 327 329 330 330 330 330 331 331 332 332 333 334 334 334 335 336 337 338 339 341 343 343 344 344 342 341 342 342 342 344 344 342 342 343 342 344 347 349 348 349 348 348 349 349 350 350 350 349 348 347 347 346 346 345 344 345
328 330 330 330 330 330 329 328 328 328 327 328 327 327 327 326 326 326 327 328 328 328 329 329 329 328 327 328 328 327 326 328 330 330 330 330 330 331 332 333 333 333 334 335 335 335 336 338 339 340 341 342 343 344 344 342 341 342 342 341 343 343 343 344 344 343 343 346 347 348 348 349 349 349 349 348 348 349 348 347 346 345 345 345 343 342 342
329 331 331 330 331 330 329 328 327 327 326 327 327 326 326 326 325 325 326 327 328 329 330 330 329 328 327 328 328 327 327 329 329 329 330 330 331 332 333 333 333 333 335 336 335 334 335 335 337 339 340 341 343 344 343 342 342 342 342 342 342 343 343 343 343 343 344 345 347 347 347 348 349 348 347 346 346 347 346 346 346 345 344 343 342 340 340
329 331 330 330 329 329 328 327 327 326 326 326 325 325 325 324 325 326 326 326 327 328 330 330 330 329 328 328 327 327 328 329 329 329 329 330 331 332 332 332 332 332 333 335 335 335 334 334 335 338 340 341 343 343 342 341 341 342 342 342 342 343 343 342 342 343 344 344 344 344 345 346 347 347 347 347 346 346 345 345 346 345 344 342 341 341 341
329 329 328 329 329 328 327 326 326 326 326 325 324 324 325 325 326 326 326 326 326 327 329 329 329 329 330 329 328 328 329 329 329 329 330 330 331 331 331 332 332 331 332 334 335 335 335 335 335 337 338 340 343 342 340 340 341 341 342 341 341 342 343 341 342 343 343 343 343 342 343 344 346 347 348 348 347 347 345 345 345 343 341 340 338 338 340
328 328 328 328 328 327 326 326 326 326 327 326 325 325 326 327 327 327 327 327 328 328 328 329 329 329 330 329 329 329 330 329 330 330 331 331 331 330 330 331 332 332 332 334 334 334 335 336 335 336 337 339 340 339 339 340 342 342 342 341 340 341 342 343 342 342 341 341 342 342 343 344 345 347 348 347 347 346 345 345 344 342 340 339 337 336 338
328 328 327 327 327 327 326 326 326 326 327 326 326 327 328 327 327 327 327 327 328 328 329 330 330 330 330 329 328 329 330 331 331 331 332 332 331 330 330 330 331 332 333 333 333 333 334 336 335 334 335 337 338 338 338 339 342 344 342 342 341 341 341 342 342 340 340 340 341 342 342 342 343 346 347 346 345 345 344 344 344 343 341 340 338 337 337
327 327 327 327 327 326 326 326 326 326 327 327 327 328 328 327 327 327 327 326 327 328 329 330 330 330 329 329 330 331 331 331 332 332 332 332 332 331 329 330 331 332 332 333 332 333 334 335 335 334 335 335 337 339 338 338 341 344 344 342 342 342 341 341 342 341 339 340 342 343 342 341 342 344 345 344 344 345 344 344 345 344 344 342 340 338 337
327 327 327 326 326 326 326 326 327 327 328 328 327 326 326 326 326 326 325 325 327 329 330 331 331 330 330 330 331 331 331 332 332 333 332 332 332 331 329 329 330 331 332 332 332 333 334 335 336 336 336 336 337 338 339 339 341 344 344 343 342 342 342 342 342 342 341 341 342 342 343 343 343 344 344 342 340 340 342 344 345 346 346 345 343 340 338
327 327 326 326 327 328 327 327 327 327 327 327 326 326 326 325 325 324 324 325 328 330 331 331 331 330 330 331 331 331 332 332 332 332 332 332 332 332 330 330 331 332 332 332 332 333 334 335 335 335 335 337 338 339 340 339 339 341 343 342 341 341 342 342 343 342 342 342 343 343 342 343 344 344 343 342 340 337 337 342 346 347 347 347 343 339 337
327 326 327 327 327 327 327 327 327 326 326 326 327 327 326 326 325 325 326 327 330 331 331 331 331 331 331 332 332 332 332 332 331 331 331 331 331 332 331 331 332 332 332 332 333 333 333 334 335 334 334 335 338 340 341 339 338 341 343 342 341 341 341 342 343 343 342 342 343 343 342 342 343 343 343 343 343 340 339 343 347 348 348 348 345 341 339
326 326 326 326 326 326 326 327 326 325 325 326 326 326 326 326 326 327 327 329 331 331 331 331 332 332 332 333 333 332 332 332 331 331 331 330 330 331 332 332 332 333 333 333 332 332 332 332 334 335 336 335 335 336 337 337 338 341 343 342 342 342 340 338 341 343 344 344 343 342 342 342 343 343 343 344 344 343 343 345 347 345 344 345 345 345 344
327 326 326 326 326 325 325 325 325 324 325 325 326 326 326 326 327 327 328 328 330 331 331 332 334 334 334 333 332 331 331 331 331 331 330 329 330 331 331 331 331 332 333 333 333 332 333 334 334 335 335 334 334 335 335 335 336 340 341 340 341 342 339 336 338 341 344 344 343 342 343 343 343 343 343 343 344 344 345 346 347 346 345 346 346 346 346
327 327 326 326 326 325 325 325 325 325 325 325 326 326 326 327 327 328 328 329 330 331 332 334 334 334 333 333 332 331 331 331 332 332 331 330 330 330 331 332 332 331 332 333 333 333 333 334 335 336 335 334 333 334 335 335 336 338 339 338 340 341 341 339 339 341 343 344 343 342 343 344 344 344 344 344 344 345 346 346 346 347 348 348 348 348 346
328 327 327 326 325 325 325 324 324 325 325 325 326 326 326 326 327 328 330 331 331 332 333 334 334 333 333 332 331 331 331 332 332 332 332 331 330 329 330 332 333 332 332 332 332 332 333 333 333 335 335 334 333 333 335 336 337 337 338 338 338 339 340 341 340 340 341 342 343 342 341 342 343 342 343 345 345 345 345 346 346 346 347 347 348 347 346
327 326 326 325 324 324 324 324 325 325 325 324 325 326 326 327 328 329 331 332 332 333 333 333 333 333 332 332 331 331 331 331 330 329 330 331 330 328 328 330 331 332 333 332 332 332 332 331 332 334 334 333 333 333 333 335 336 337 337 338 338 338 341 343 343 342 341 342 343 342 341 340 339 339 341 344 345 344 345 345 345 345 346 346 346 346 345
326 326 325 325 324 324 324 325 325 325 325 326 326 327 327 328 329 331 332 332 332 333 333 333 333 332 332 332 332 331 331 331 330 328 329 331 331 331 330 329 329 330 332 332 332 332 332 331 332 333 333 333 334 334 334 334 335 336 335 335 336 337 340 342 342 342 343 343 343 342 342 340 339 339 341 342 343 343 344 344 344 344 344 344 344 345 344
324 325 325 325 324 324 325 325 325 326 326 326 327 328 329 330 331 332 332 332 333 334 334 333 332 333 332 332 331 331 331 331 330 329 329 330 331 332 331 329 328 329 330 332 332 332 331 331 332 333 333 334 335 335 334 334 335 336 336 336 335 335 337 338 339 340 342 342 341 340 340 339 339 340 340 340 341 342 342 343 343 343 343 343 343 343 344
324 323 324 325 325 325 325 325 325 326 326 327 327 329 330 332 332 332 333 333 334 334 333 333 332 332 332 331 330 330 330 330 330 330 330 330 330 331 331 330 329 329 329 330 331 331 331 330 331 332 333 334 334 335 335 334 335 335 337 337 337 336 336 336 336 338 340 340 339 338 337 337 337 338 337 339 341 342 341 341 341 341 341 342 342 342 342
324 324 324 324 325 325 326 325 326 326 327 328 329 330 332 332 332 333 333 334 334 334 333 333 333 332 331 331 330 330 329 330 330 329 329 328 330 332 332 330 329 329 329 329 330 331 331 330 330 331 332 332 333 334 334 334 334 334 335 337 338 338 337 335 334 335 336 336 336 336 336 335 337 338 338 339 341 342 341 341 340 340 340 341 341 341 341
324 324 324 324 325 325 326 326 327 328 328 330 331 332 333 333 333 334 334 335 335 334 333 333 332 332 331 330 330 330 329 329 329 329 328 328 329 331 331 330 329 329 330 330 330 330 330 330 330 331 331 332 333 333 333 333 334 334 335 335 336 336 335 334 335 336 336 334 334 334 334 333 334 337 339 340 341 341 341 341 341 340 340 340 340 339 339
323 324 324 325 325 325 326 327 329 329 330 330 332 333 333 334 334 334 334 335 335 334 333 332 332 332 331 329 329 329 329 329 329 328 328 328 329 329 329 330 330 330 329 329 329 329 329 330 330 330 330 331 332 333 333 333 334 335 336 335 335 334 335 336 337 338 338 336 335 335 334 333 334 336 339 339 339 339 340 340 340 340 340 340 339 340 339
324 324 324 325 325 325 326 328 329 330 330 331 332 332 334 334 334 334 334 335 334 334 333 332 332 331 330 328 328 328 328 328 328 327 327 328 329 328 328 329 330 330 328 328 328 329 328 328 328 329 329 330 330 330 331 332 333 334 335 335 335 335 336 337 337 337 338 338 338 337 337 338 338 339 339 339 339 339 339 339 339 338 338 338 338 339 339
324 324 324 325 325 326 327 328 329 331 331 331 331 331 333 334 334 334 335 335 334 334 333 332 332 331 329 327 327 328 327 327 327 327 327 328 328 328 327 328 329 328 327 327 328 329 328 327 327 327 327 327 328 328 329 330 331 332 332 333 334 335 335 336 337 337 338 338 338 338 338 338 339 339 339 339 339 338 339 339 338 337 337 338 338 339 340
324 324 324 325 326 327 328 328 330 331 331 330 330 331 333 334 335 335 335 335 334 333 332 332 332 331 328 327 327 327 327 326 326 326 327 327 327 327 326 326 326 326 326 327 327 327 326 326 325 325 325 325 325 326 326 326 326 327 328 329 331 332 333 334 335 336 337 337 337 338 338 338 338 338 338 339 338 338 338 338 338 338 339 339 339 339 339
323 324 325 326 327 327 327 328 329 330 330 331 331 332 334 335 335 335 335 335 334 333 332 332 332 330 328 327 327 327 326 326 326 326 327 327 327 326 326 325 325 325 325 325 325 325 324 324 324 324 323 323 323 323 323 323 323 323 323 324 326 328 330 332 333 334 334 335 336 336 337 337 338 338 338 338 338 338 338 338 339 339 339 339 339 339 338
323 324 324 326 327 327 328 329 330 331 331 332 332 332 333 334 335 335 335 335 334 333 332 332 332 330 328 326 327 327 326 326 325 326 326 326 326 326 325 324 324 324 324 324 324 323 323 322 323 323 322 322 322 321 320 320 319 319 320 320 321 323 325 327 329 331 333 333 334 335 336 337 337 337 337 337 337 337 337 337 337 336 335 334 334 333 332
324 323 324 325 326 327 328 329 330 331 331 331 330 330 331 333 335 335 335 334 334 333 332 332 331 329 327 326 326 326 326 325 325 325 325 325 325 325 324 324 323 323 323 323 323 323 322 322 322 322 321 321 320 319 319 318 318 317 316 316 317 317 318 320 322 324 327 329 330 332 334 334 335 334 333 332 332 332 332 331 330 329 329 328 327 326 326
326 325 325 325 326 327 328 329 330 330 330 330 329 330 332 334 335 335 335 334 333 332 332 332 330 328 327 326 326 325 325 325 326 325 325 324 324 324 324 323 322 321 322 322 323 322 322 321 321 321 321 320 320 318 317 317 316 315 315 314 314 314 314 315 316 318 320 321 323 325 326 327 327 328 327 325 324 324 324 324 323 322 322 323 322 322 321
326 326 326 326 327 327 328 328 328 328 328 329 329 330 333 334 334 334 334 333 333 332 331 331 329 328 326 326 326 325 325 325 325 325 324 324 323 323 323 323 321 320 320 321 322 322 321 321 321 321 320 320 318 317 317 316 316 315 314 313 312 312 312 312 313 314 315 316 317 318 318 318 318 319 319 319 319 319 320 320 319 319 319 320 320 320 318
326 326 325 325 326 326 327 327 326 326 327 327 328 330 332 333 333 333 333 332 332 331 330 329 329 327 326 326 326 326 325 325 324 322 322 322 322 322 322 322 321 319 319 319 320 321 321 321 321 320 319 318 317 316 316 316 316 315 314 312 311 311 311 311 311 311 312 312 313 313 313 313 313 313 314 314 314 315 316 316 316 317 319 320 320 320 319
327 327 325 324 325 325 326 327 327 328 329 329 329 330 331 332 333 333 332 331 330 330 330 329 328 327 326 326 326 325 325 324 322 321 321 322 322 322 322 322 320 319 317 318 319 320 321 321 321 320 319 318 317 316 316 316 316 315 314 313 312 311 311 311 311 310 310 310 310 310 310 310 310 311 311 311 312 313 314 315 316 317 319 319 318 318 318
326 325 324 324 325 325 325 327 328 330 330 330 329 329 330 331 332 331 331 330 329 329 329 329 328 326 326 326 325 325 324 323 322 321 322 322 321 321 322 322 321 319 317 318 319 320 321 320 320 319 318 317 316 316 317 317 316 315 314 314 313 312 312 312 311 310 310 309 309 310 310 310 310 309 310 310 311 312 313 313 314 314 314 314 314 315 316
Wind_Speed
6 5 5 4 4 4 3 3 4 5 5 5 5 5 5 5 4 3 4 4 5 6 6 7 8 9 9 9 9 7 6 7 7 6 7 8 8 8 9 11 14 16 16 16 18 20 20 21 20 17 14 13 12 12 10 10 11 10 10 10 11 13 14 15 15 14 13 13 14 15 16 18 19 17 17 18 18 17 18 19 19 20 20 19 19 18 18
7 5 5 5 5 5 5 4 3 4 5 5 5 5 5 4 3 4 3 3 4 5 6 8 8 7 8 7 7 7 7 7 8 8 7 7 6 7 7 8 10 12 14 16 18 21 21 21 22 19 16 15 14 13 12 12 12 10 10 10 11 13 13 13 13 14 13 12 13 14 15 17 17 18 18 18 17 17 18 17 16 17 19 21 21 21 21
5 5 5 5 5 5 5 5 4 2 2 3 3 4 4 2 2 3 3 4 2 4 5 7 7 7 7 7 8 9 7 7 9 9 9 8 7 6 6 8 8 9 12 14 17 20 21 21 21 20 17 16 15 14 13 13 13 11 9 11 12 12 12 13 13 14 12 11 12 14 15 16 16 16 17 17 16 17 18 17 15 15 18 21 23 24 25
4 6 6 5 5 3 4 4 4 2 1 2 4 4 4 4 4 4 5 5 4 5 6 7 7 7 9 9 10 9 7 7 9 10 11 10 9 8 7 7 7 8 11 13 15 19 21 21 21 19 18 17 16 16 16 14 13 12 10 11 12 11 11 11 12 12 12 12 13 14 14 14 13 12 13 14 15 15 16 16 14 14 16 19 22 25 26
4 7 6 4 3 5 4 4 4 4 3 2 2 2 4 4 5 6 5 4 6 7 7 8 9 10 10 10 10 9 8 7 8 9 10 11 11 10 9 7 7 7 9 12 15 18 19 21 21 20 18 18 16 16 18 16 13 12 11 12 12 10 9 9 9 10 11 12 13 13 11 11 10 9 10 11 12 13 13 12 12 14 15 17 20 23 23
3 7 5 4 5 5 0 5 4 4 3 2 2 2 4 4 4 4 4 4 6 8 8 9 10 11 11 11 11 10 7 5 7 9 10 11 11 12 11 9 9 9 9 12 16 18 18 20 22 20 18 18 17 16 19 18 13 12 11 11 11 10 9 9 9 10 10 11 12 10 8 6 6 7 8 9 11 11 11 10 12 13 14 15 18 20 20
1 5 5 6 5 1 5 6 4 4 4 3 2 1 1 1 4 4 5 6 7 8 9 10 11 11 12 14 13 8 4 4 8 9 10 11 11 11 11 11 10 11 11 12 14 16 17 18 20 20 19 19 19 18 18 18 14 12 12 10 10 10 9 8 8 8 9 10 10 8 6 5 4 4 5 7 9 10 9 10 12 12 13 14 15 18 20
1 4 5 4 0 5 7 5 3 2 1 0 3 4 4 3 2 5 6 8 8 9 10 10 10 12 13 14 9 3 4 6 9 10 11 11 11 11 11 12 12 13 13 12 13 14 15 15 17 19 19 19 20 19 18 17 16 13 12 10 10 10 9 9 7 7 7 8 8 6 6 7 7 5 3 5 9 11 11 12 12 12 12 11 11 14 18
2 5 4 2 3 5 6 5 3 0 2 2 5 6 2 4 1 4 6 8 9 10 10 10 12 13 13 10 2 4 4 9 11 12 12 12 12 12 13 14 14 14 14 13 14 15 15 15 15 17 18 18 19 20 19 17 15 12 11 11 12 12 9 8 6 5 6 6 7 8 8 8 8 7 5 4 8 12 14 14 12 12 12 11 10 11 14
2 5 4 2 3 3 3 4 5 2 3 2 4 6 2 3 2 4 6 8 9 10 10 11 13 12 10 7 2 3 7 12 13 14 14 14 14 14 15 15 15 15 14 15 15 16 17 16 15 16 18 18 19 20 20 16 11 9 10 10 12 15 12 6 4 5 5 6 7 8 7 7 8 9 9 7 6 10 14 16 15 13 12 10 10 11 12
3 5 6 5 4 1 5 5 4 3 2 2 4 6 2 2 4 6 6 9 10 10 11 12 11 10 8 7 6 8 13 15 14 14 14 15 16 15 15 16 15 15 15 15 15 16 16 17 16 16 17 17 18 19 20 16 9 7 10 10 9 13 12 7 4 4 6 6 7 8 9 8 8 9 10 8 7 9 14 16 15 12 10 10 9 10 10
2 4 5 3 2 4 6 4 3 3 2 2 6 5 0 3 5 6 7 9 10 10 11 10 9 8 8 8 10 14 17 17 16 15 15 16 16 16 16 15 15 15 15 14 14 15 16 16 16 16 16 16 16 17 18 17 9 6 10 11 10 12 11 6 4 5 6 7 7 9 10 9 9 9 10 9 8 9 11 12 11 10 9 9 8 8 8
1 3 4 2 2 5 5 4 3 3 1 4 5 3 2 3 6 6 7 9 10 10 10 8 7 8 9 11 14 16 17 18 17 17 17 17 17 17 16 16 16 15 15 14 14 14 15 15 15 15 14 14 16 16 16 16 11 7 9 11 12 12 10 6 5 6 6 7 7 7 8 8 8 8 8 8 10 11 10 9 8 7 7 8 7 7 8
1 2 3 2 2 4 3 3 3 1 4 3 1 3 3 4 7 8 7 8 9 9 10 8 8 10 12 14 15 16 16 16 17 18 18 18 18 17 17 16 15 14 14 14 14 14 14 15 15 14 14 14 14 15 15 15 14 11 9 10 11 12 10 7 6 6 7 7 7 6 5 6 7 7 7 9 11 12 10 9 8 8 8 8 8 7 8
1 2 3 3 1 3 1 2 0 1 3 3 3 4 4 5 7 8 8 7 8 9 10 10 11 13 14 15 15 16 16 16 16 18 19 19 18 18 18 17 15 14 14 15 15 14 14 14 14 14 14 13 13 14 14 15 15 13 11 10 11 12 10 8 6 7 7 7 6 5 5 5 6 7 8 10 10 10 11 12 11 10 9 8 7 5 6
2 2 1 1 3 4 2 3 2 2 3 4 3 4 5 5 5 6 6 7 8 10 10 11 13 13 14 15 16 16 17 16 16 18 19 19 19 18 18 18 16 15 14 15 15 14 14 14 14 13 13 13 13 13 14 14 14 13 12 10 10 12 11 8 7 8 8 7 6 5 5 5 6 6 8 10 10 10 12 13 12 11 9 9 8 7 7
2 3 4 4 3 3 2 2 2 2 2 2 3 5 5 5 5 5 6 7 9 10 11 12 12 13 14 16 16 16 17 16 17 18 19 20 19 18 18 18 17 15 15 15 15 15 14 14 14 13 13 12 13 14 14 13 13 13 13 10 9 12 13 10 8 8 8 7 6 5 5 6 7 8 9 10 11 12 14 14 13 12 11 10 10 10 10
1 1 3 2 1 1 1 1 2 2 3 3 5 5 5 5 6 6 6 8 9 10 11 11 11 13 15 16 16 16 16 17 17 19 20 20 19 18 18 18 17 16 16 16 15 15 15 14 13 12 12 12 13 13 13 12 12 12 12 10 8 10 14 12 8 7 7 7 7 7 6 7 9 10 10 11 12 14 15 14 13 13 12 11 11 11 10
1 1 2 2 1 1 1 1 1 1 3 3 4 5 5 6 7 7 7 9 10 11 11 11 12 13 15 16 16 15 15 16 17 18 19 19 19 19 19 18 18 18 17 16 15 15 15 14 13 12 12 11 12 12 12 12 12 11 11 10 7 7 12 12 8 7 7 7 8 8 8 9 11 12 12 13 14 15 15 14 14 13 12 11 12 12 12
2 1 4 2 2 1 2 2 1 2 3 3 4 5 6 7 8 8 9 9 9 10 11 12 12 13 15 15 15 14 14 14 16 17 19 19 19 19 19 19 18 17 17 16 16 15 15 14 13 12 12 12 12 12 12 11 11 10 10 9 7 6 9 10 7 8 8 7 7 8 9 11 12 13 14 16 16 16 15 14 13 13 12 12 12 12 12
2 2 4 2 2 2 4 3 1 3 3 4 5 7 7 8 9 9 10 11 10 11 12 12 13 14 14 14 14 14 14 14 15 18 19 20 20 19 19 18 17 16 16 16 16 15 14 14 13 12 12 12 12 12 11 10 10 10 9 9 7 6 7 7 6 7 7 7 7 8 9 10 11 12 14 15 15 14 14 13 13 12 11 11 13 14 13
1 3 3 1 2 1 1 0 2 3 4 4 6 7 7 8 9 10 11 12 12 13 14 14 14 13 13 14 14 15 14 15 17 19 19 20 19 18 18 19 17 16 16 16 17 16 15 14 13 12 13 13 12 12 11 9 9 9 8 8 7 5 4 5 5 6 7 8 8 9 9 9 10 12 14 13 12 10 10 12 13 12 10 8 9 11 12
3 5 4 1 2 2 2 2 3 4 4 5 6 7 8 9 10 11 12 12 12 12 13 15 16 13 13 16 16 15 15 17 19 19 19 18 18 18 18 18 18 17 16 16 16 16 16 15 14 12 13 13 12 11 10 9 9 8 7 7 7 4 4 6 6 6 7 7 7 8 8 8 10 12 12 12 12 11 9 11 13 13 12 9 8 10 10
2 3 2 0 2 2 2 3 4 4 4 5 7 8 9 10 11 12 12 13 13 12 12 15 17 16 15 16 16 15 16 18 19 19 19 18 17 17 16 17 18 18 17 16 16 16 15 15 14 13 13 13 12 12 10 8 8 7 6 6 6 4 4 6 7 7 6 6 6 7 6 7 9 11 10 11 12 12 11 12 13 13 13 12 12 13 12
1 2 2 0 2 3 3 4 4 3 4 6 8 9 10 11 13 14 14 13 14 14 13 15 17 17 16 17 17 16 17 18 19 19 19 18 17 16 16 16 18 18 17 16 16 16 15 15 15 15 13 12 12 13 12 9 7 7 7 6 6 6 4 4 5 7 8 8 7 6 6 8 9 9 8 10 12 13 13 14 14 15 16 15 14 15 14
1 1 0 3 3 3 3 4 3 3 6 9 9 10 11 12 13 14 15 15 15 15 15 17 17 17 16 17 17 17 17 18 18 18 18 17 17 17 17 16 17 17 17 17 18 17 15 15 15 15 13 12 12 13 14 13 9 8 7 7 6 6 6 5 4 5 8 10 9 8 9 10 9 8 7 8 11 12 13 14 15 16 18 19 18 17 16
1 0 2 4 3 2 2 4 5 7 9 11 11 11 13 13 14 15 15 15 14 15 16 17 17 17 17 16 16 16 17 17 18 17 17 17 18 17 17 16 17 18 18 17 17 16 15 15 14 13 12 12 11 11 13 15 13 10 9 8 7 6 7 7 6 5 6 8 10 10 11 11 9 9 8 9 10 11 13 15 16 16 17 19 21 21 19
1 1 3 4 4 4 5 7 8 9 10 11 12 13 14 13 14 14 14 13 14 15 16 17 16 17 16 15 15 16 17 17 17 17 17 17 18 18 17 17 17 17 17 17 17 16 14 13 13 12 12 12 11 10 13 15 14 11 10 9 8 7 7 7 7 5 5 6 9 11 11 11 10 10 11 12 11 13 16 16 16 16 15 15 18 21 22
1 1 2 3 5 5 6 8 8 9 10 11 12 13 14 13 13 12 12 13 14 14 15 16 17 16 16 15 14 15 16 16 17 18 18 18 17 17 16 16 16 17 17 17 16 14 13 12 12 13 13 11 9 10 12 13 13 12 10 9 8 7 6 6 6 6 5 6 7 8 9 9 8 9 11 13 13 16 21 21 17 16 15 13 14 17 19
1 2 3 4 5 7 7 7 8 9 10 11 11 12 13 13 12 11 11 13 13 13 15 17 17 16 16 15 14 15 16 17 18 18 19 20 18 16 15 15 14 14 14 14 14 14 13 12 12 13 13 11 9 9 11 12 13 12 12 11 10 8 7 6 5 6 6 6 6 6 7 8 9 10 11 12 13 17 22 20 15 13 12 11 12 13 14
1 3 5 5 6 8 8 7 8 9 9 10 11 12 12 12 12 12 12 12 12 13 16 17 16 15 15 15 15 16 17 16 17 18 19 20 18 15 13 13 13 12 13 15 15 15 14 13 12 12 11 11 11 11 11 12 13 12 12 12 11 10 10 8 7 7 7 7 7 7 8 9 10 11 11 13 14 16 17 15 12 12 12 11 12 12 11
4 6 6 5 6 8 8 8 8 10 10 11 11 11 11 11 11 12 12 11 13 16 17 16 15 15 15 16 17 17 17 17 17 18 18 18 16 14 13 13 13 13 14 15 16 16 15 14 14 13 12 12 12 12 13 14 13 12 12 12 11 10 10 9 8 7 7 7 7 8 9 10 11 11 12 14 14 14 14 13 12 12 12 11 11 9 9
5 6 6 7 7 8 9 9 9 10 11 11 10 11 11 12 12 12 13 14 15 16 15 15 15 16 16 16 16 16 17 17 17 16 17 17 17 16 14 13 13 13 14 14 15 15 15 14 14 13 12 12 12 13 14 14 13 12 12 12 12 10 10 9 8 7 7 7 7 8 8 8 8 10 11 12 12 11 11 10 10 10 10 9 8 8 9
5 6 7 8 8 8 10 10 10 10 10 10 11 12 13 13 13 14 14 15 15 15 14 14 15 16 16 16 16 16 16 15 13 14 15 17 19 19 17 14 13 13 13 14 14 13 14 14 13 11 11 12 12 13 14 14 13 13 13 13 13 12 11 11 10 9 8 7 7 8 9 7 6 9 10 10 9 9 8 8 8 8 8 9 7 7 8
5 6 7 8 9 10 11 11 10 10 10 10 11 13 14 14 15 15 14 14 15 14 14 14 15 15 15 15 15 16 15 13 14 15 16 16 19 22 20 17 15 13 12 13 12 12 13 14 12 10 12 13 13 13 14 15 14 13 12 12 13 13 12 10 9 9 9 7 6 8 8 6 6 10 10 8 7 8 7 7 8 8 8 8 7 7 8
6 6 7 8 10 11 12 12 12 12 12 12 12 13 14 15 15 15 14 14 14 13 13 14 14 15 15 15 15 15 13 12 15 17 17 16 17 18 17 17 17 15 13 12 11 10 11 11 10 11 13 14 13 12 11 13 14 14 13 12 12 11 10 10 9 10 10 8 7 7 7 6 7 10 10 7 6 7 7 7 7 7 7 7 6 7 8
7 7 8 9 10 11 12 12 13 13 14 13 14 14 14 15 15 14 13 13 13 12 12 13 13 14 14 15 15 14 12 11 13 17 17 17 17 16 15 16 17 15 13 11 11 12 13 13 12 12 12 11 11 11 10 10 11 12 12 12 12 10 9 12 14 13 11 9 8 8 9 9 8 9 10 9 7 6 6 5 5 5 5 5 5 5 6
7 8 9 9 10 11 12 13 13 13 14 14 14 14 13 13 13 13 12 11 11 11 12 12 13 14 15 15 15 15 13 12 13 16 17 17 17 16 14 14 15 15 15 14 14 14 15 14 14 13 11 9 9 10 9 9 10 11 10 10 10 9 8 11 14 13 10 10 10 11 11 12 12 10 11 10 7 5 5 4 3 3 4 5 5 5 5
7 9 10 10 10 11 12 13 13 13 13 13 13 13 13 12 12 12 11 10 9 10 11 12 12 14 15 15 15 14 14 14 16 17 17 16 15 13 12 13 16 18 19 19 16 14 13 14 13 11 10 10 9 9 8 9 9 9 10 10 9 8 8 10 13 13 12 12 11 10 11 13 15 14 12 9 5 4 4 3 3 3 4 4 4 4 4
8 9 10 11 11 11 12 13 13 13 12 12 12 12 12 12 11 10 9 9 9 9 10 11 12 13 15 15 15 13 13 14 16 17 16 16 15 13 12 13 17 19 20 19 18 15 13 12 11 10 9 10 9 8 8 9 8 8 8 9 9 10 11 11 12 13 13 13 12 11 11 13 17 17 14 9 7 5 5 4 4 4 3 3 3 3 4
8 9 10 11 11 12 12 12 12 12 13 12 12 12 12 11 10 9 9 9 9 9 10 10 11 12 14 16 15 14 13 13 15 15 15 14 14 14 12 12 15 19 20 19 19 18 16 14 13 12 12 11 9 9 9 10 9 8 7 7 8 9 10 10 9 8 8 9 11 13 13 14 16 15 12 10 8 8 7 6 5 5 4 4 4 3 3
9 10 11 11 11 12 12 12 11 12 12 12 12 12 12 10 9 9 8 8 8 9 10 10 10 11 13 15 15 13 13 13 14 15 14 12 12 13 12 12 15 18 20 21 20 20 20 19 18 17 15 13 11 11 11 10 9 7 7 7 7 8 8 8 7 7 6 5 5 7 8 9 9 8 7 6 7 7 6 6 6 7 7 6 5 3 3
9 10 10 11 11 12 11 11 11 11 12 13 13 13 12 10 8 7 7 7 8 9 10 10 10 11 13 14 13 12 12 12 12 13 13 12 12 13 15 17 18 19 22 21 18 17 19 20 20 19 16 14 13 12 11 9 8 8 8 7 7 7 7 7 6 6 5 5 5 6 6 5 5 5 5 4 4 4 4 4 4 4 4 4 3 2 1
9 10 10 11 12 12 11 11 11 11 12 13 14 13 12 10 8 7 7 7 8 8 9 9 9 10 12 12 12 12 11 11 11 12 13 13 12 14 17 19 19 19 19 19 16 16 17 19 19 18 17 16 14 13 11 10 10 10 10 9 8 7 7 6 6 5 5 5 4 4 4 4 4 4 4 4 4 3 3 3 3 2 1 1 1 1 2
10 10 11 11 11 11 11 11 11 11 12 14 15 14 11 8 7 7 7 7 7 8 8 7 8 10 11 10 10 11 11 10 10 10 11 10 11 14 17 18 17 16 16 16 15 15 17 18 18 18 18 17 15 13 12 12 12 11 11 10 10 9 8 7 6 5 5 5 4 4 4 4 3 3 3 3 3 2 2 1 2 3 3 4 4 5 5
11 11 11 11 11 11 11 11 11 12 13 14 13 12 10 8 7 7 6 6 7 8 7 6 7 8 9 9 8 9 10 9 8 9 10 10 10 13 16 16 15 16 15 13 13 14 16 17 18 18 18 17 16 15 14 14 13 13 12 11 11 10 9 9 7 5 3 2 2 2 2 2 2 2 2 3 3 3 4 5 6 7 7 7 7 7 7
11 10 10 10 11 11 12 12 12 12 13 12 11 11 10 9 8 7 6 6 7 7 7 6 7 7 7 7 7 7 8 8 8 10 11 11 11 12 14 14 14 15 14 12 11 14 16 17 17 17 17 17 16 15 14 14 15 15 14 13 12 12 11 10 9 8 6 5 4 3 3 3 3 4 5 6 6 7 7 7 8 8 7 7 8 9 10
10 10 10 10 11 11 11 12 12 12 11 11 11 11 10 9 8 7 6 6 6 6 6 6 6 5 5 5 6 6 6 7 7 8 10 10 11 12 13 13 13 14 14 11 10 12 15 17 17 17 17 15 14 14 15 15 16 17 17 15 15 14 14 13 12 10 9 9 9 8 8 8 8 8 8 9 9 9 10 10 10 9 9 10 11 12 12
11 10 10 10 10 10 10 11 11 10 10 11 11 11 10 9 8 7 6 6 6 7 6 5 4 4 4 4 5 5 6 7 7 7 8 9 10 11 12 13 12 13 13 11 10 11 13 16 16 16 15 14 14 16 16 15 15 16 18 18 18 18 18 17 15 13 12 12 13 12 12 11 11 12 13 13 13 13 13 13 13 13 14 15 15 15 14
11 10 10 10 10 10 10 10 10 10 10 11 11 10 9 8 8 7 6 6 7 6 6 5 4 3 3 4 4 5 5 6 6 7 7 8 8 9 10 11 12 12 12 11 10 11 13 14 14 14 13 13 14 16 17 16 14 15 17 18 19 20 20 19 19 18 18 17 17 16 16 15 15 16 17 18 18 18 18 18 18 18 18 18 18 18 18
10 10 10 10 11 10 10 10 11 10 10 10 10 9 9 8 8 7 6 6 7 7 6 5 4 3 3 3 3 4 5 5 6 7 7 8 8 8 8 9 11 12 12 11 11 12 12 12 12 12 12 12 12 13 14 14 13 14 15 16 17 18 18 18 18 19 20 20 20 20 20 20 21 21 22 22 21 21 22 22 22 22 22 22 21 21 21
11 11 12 11 11 11 11 10 10 10 9 9 9 9 8 9 9 8 5 4 6 8 6 5 4 3 3 2 2 3 4 5 5 6 7 8 8 7 7 7 8 9 10 10 11 12 11 11 11 12 12 12 12 12 12 12 13 13 13 14 15 16 17 17 16 16 18 19 20 21 22 23 23 23 23 23 23 24 24 25 25 25 25 24 23 23 23
Wind_Direction
93 90 89 83 82 81 70 52 42 39 34 31 44 47 24 358 330 352 33 348 328 5 9 355 2 356 348 353 356 358 359 2 8 7 6 8 6 9 1 342 343 348 347 349 350 347 348 350 349 345 340 338 334 327 316 298 282 271 259 247 237 236 238 238 236 236 235 232 231 230 228 227 227 227 226 225 225 229 232 234 234 233 232 231 235 239 241
107 103 104 109 116 115 108 97 80 68 63 56 58 60 46 35 27 24 17 332 354 23 5 355 358 347 340 345 349 354 353 355 1 3 10 19 15 11 360 342 340 339 336 343 347 344 342 346 346 340 335 334 329 322 313 300 291 285 267 251 241 237 239 241 241 241 237 231 233 234 231 231 232 231 229 227 228 232 234 232 231 232 233 232 232 235 237
126 126 132 138 139 126 117 113 104 95 86 67 59 50 28 15 29 18 325 286 345 29 4 349 347 340 338 342 350 355 352 353 359 357 360 9 7 2 355 344 339 330 326 336 345 341 337 340 342 336 332 332 326 317 310 300 294 290 270 249 242 238 237 239 241 242 239 232 233 233 232 235 237 235 233 232 233 236 236 237 236 233 235 235 232 233 235
155 151 167 162 151 159 156 129 98 72 53 49 55 47 17 356 343 324 293 285 339 9 351 339 340 340 341 345 349 349 346 350 355 354 355 358 358 356 351 342 337 331 327 330 335 335 333 334 336 332 328 328 326 317 309 302 292 285 270 250 246 241 233 232 232 233 233 230 229 229 230 235 240 243 242 240 241 241 240 241 239 233 235 237 235 236 235
156 156 176 172 192 238 213 127 80 59 66 64 72 70 39 11 335 315 313 336 353 346 336 337 340 339 339 342 339 336 335 339 347 353 351 350 351 349 346 341 333 329 325 319 319 325 330 330 329 327 324 326 327 317 309 304 293 282 268 251 249 245 234 231 229 225 226 227 226 225 227 233 243 252 253 248 243 240 238 238 237 236 238 237 233 231 228
159 145 164 202 240 257 145 92 76 54 45 19 5 35 33 12 351 338 336 347 347 337 336 341 338 334 334 331 326 326 330 335 344 348 345 343 345 342 340 341 335 328 322 313 311 317 324 325 324 324 323 327 328 318 309 304 293 282 271 252 246 245 237 232 227 221 221 222 222 221 221 230 242 251 259 259 248 240 237 236 239 243 243 240 235 229 226
144 135 180 238 253 178 92 86 77 63 52 30 350 267 149 30 358 341 324 335 346 338 335 337 331 329 329 319 313 319 344 359 347 341 338 338 338 335 334 335 333 328 321 309 305 308 313 318 322 323 326 329 328 320 310 303 292 282 273 255 244 245 244 238 225 217 216 214 214 214 209 212 225 236 264 280 273 264 258 249 247 248 245 242 237 229 228
189 187 217 248 206 123 119 107 97 114 158 236 286 255 173 129 1 331 325 336 342 333 332 335 331 330 323 311 309 355 31 0 344 335 333 332 329 328 328 328 327 326 320 310 303 301 303 310 318 322 325 329 326 318 311 305 296 288 283 273 258 247 242 238 226 206 203 202 194 191 194 201 214 220 243 299 292 283 275 263 253 247 241 238 230 216 217
237 257 248 135 141 170 165 144 121 120 310 354 321 300 174 130 27 339 332 331 336 334 334 336 334 330 316 306 340 86 14 345 340 331 326 324 320 320 321 321 319 317 317 315 310 306 303 306 315 320 324 328 324 315 310 308 306 308 315 308 288 269 250 235 218 192 189 186 168 169 190 207 218 219 209 239 272 274 271 265 252 240 232 226 219 205 204
233 274 265 221 240 223 139 112 101 75 345 344 303 287 252 121 50 4 338 330 337 337 334 336 335 327 313 311 16 43 345 340 335 325 323 322 319 319 318 317 315 313 316 316 314 312 309 309 316 321 323 326 321 314 312 313 317 321 319 310 290 276 265 245 213 186 183 181 165 169 192 208 218 221 210 208 232 254 259 257 250 240 228 216 211 204 200
233 265 264 264 283 37 96 95 98 84 351 298 256 259 244 67 16 358 340 333 339 338 336 337 331 322 316 320 337 342 337 332 326 321 322 320 319 318 315 313 313 313 313 312 312 313 311 313 317 319 321 322 318 315 314 317 325 313 296 291 279 270 266 257 223 185 179 185 182 185 198 207 215 215 204 194 201 229 245 250 249 243 226 208 201 196 193
231 262 268 284 5 80 93 87 67 43 12 250 246 257 34 27 347 350 343 334 337 337 334 330 323 321 321 317 319 326 324 320 320 322 320 316 316 315 312 313 314 313 309 307 308 310 311 312 313 314 317 317 315 316 316 316 327 318 294 296 291 275 269 262 233 203 193 196 194 193 198 203 206 199 187 179 187 209 228 239 245 244 227 208 194 183 183
186 249 258 262 83 91 90 79 55 18 308 232 250 296 29 353 332 346 342 330 332 331 327 324 320 317 314 309 311 316 317 317 320 320 317 314 313 312 313 315 313 310 306 303 303 305 307 307 306 307 311 310 310 316 318 318 327 329 310 306 298 282 274 265 236 215 210 207 200 199 202 201 199 192 183 179 181 188 199 212 223 227 217 201 181 163 163
261 257 264 269 103 98 71 50 70 319 275 260 315 354 351 331 333 340 333 328 329 326 323 320 314 311 312 310 311 314 317 319 319 319 318 316 313 314 314 312 310 309 308 304 302 302 304 305 303 302 304 306 308 312 317 324 331 332 323 314 301 287 277 266 236 212 212 213 204 203 208 202 197 194 190 187 185 181 177 179 190 196 190 182 171 154 151
269 234 251 278 92 104 33 310 211 222 305 343 12 350 336 340 336 328 323 327 329 325 321 318 314 314 313 314 315 317 318 318 317 318 319 316 314 314 312 309 311 314 311 306 304 303 303 304 301 297 298 304 308 308 311 323 330 329 324 316 303 294 285 268 241 211 205 209 205 199 201 199 199 203 199 193 189 179 166 161 169 179 179 173 166 157 155
278 256 240 4 49 81 55 318 339 37 16 6 351 329 330 334 329 325 324 325 326 324 319 316 316 314 313 316 319 319 318 318 319 319 318 316 314 312 310 309 312 313 310 307 306 305 303 301 299 295 292 298 306 307 308 316 325 326 326 319 305 298 291 273 249 225 205 200 202 199 198 195 198 208 206 197 192 184 172 166 167 172 176 174 172 174 174
334 348 39 54 54 67 57 13 27 36 13 348 329 322 321 323 330 331 321 318 322 322 318 317 316 315 317 319 319 318 318 319 319 318 317 315 312 311 310 309 309 308 307 305 304 304 304 301 299 293 288 290 300 306 308 312 318 322 325 323 313 304 297 284 263 239 212 195 189 190 195 196 197 206 209 203 198 188 178 174 175 175 176 181 185 187 185
85 19 51 72 84 88 84 48 43 3 334 338 333 323 320 324 327 323 315 318 320 317 315 317 317 318 319 319 319 319 319 317 317 317 316 313 312 311 310 310 309 308 304 301 300 301 303 302 299 294 286 285 292 301 308 309 311 318 324 326 324 306 295 288 275 249 220 194 183 183 188 193 197 204 210 209 203 194 186 185 186 183 184 191 195 194 192
198 178 120 141 222 173 200 261 350 309 303 328 331 323 326 324 315 311 312 314 313 311 313 316 319 320 320 319 320 320 318 316 316 316 314 313 312 309 308 309 309 306 302 300 299 300 303 303 301 297 292 286 286 293 302 305 305 312 319 325 333 309 291 286 279 264 245 212 190 188 192 198 202 205 209 210 206 200 195 193 193 194 195 199 203 204 202
263 80 112 155 276 226 213 250 297 299 306 333 331 320 319 314 308 309 312 310 310 311 313 316 320 321 320 319 320 318 316 315 314 313 313 313 311 309 308 310 309 305 303 301 300 301 303 304 303 301 296 291 286 288 295 300 302 304 310 323 337 316 286 273 253 246 248 228 200 192 195 204 208 207 207 210 208 204 201 198 198 199 199 203 212 215 211
223 126 133 190 252 196 191 216 296 316 322 331 319 312 313 312 313 316 314 309 308 308 311 317 321 321 320 320 319 316 314 312 311 311 312 313 312 312 311 310 307 304 301 299 297 298 299 301 303 301 297 292 286 283 288 294 296 297 303 316 326 314 286 264 227 216 225 217 204 202 200 204 212 214 213 213 209 206 206 206 207 210 212 215 219 221 217
241 92 107 198 289 278 179 149 335 326 326 319 311 312 314 315 318 318 313 310 308 307 310 316 319 319 319 320 319 316 312 310 310 311 312 313 313 314 312 307 303 300 298 296 296 297 297 297 298 298 297 294 285 279 283 288 288 290 297 305 312 318 303 276 242 220 218 207 199 204 207 207 214 218 217 214 211 208 206 207 210 218 231 237 228 222 219
31 59 70 44 299 317 20 10 330 326 328 317 312 316 319 321 322 318 313 312 310 308 311 315 316 318 320 320 321 317 312 312 312 311 312 313 312 310 309 306 301 298 296 295 295 295 293 292 295 294 294 293 284 273 274 281 282 282 287 293 301 317 312 292 273 247 229 212 200 205 212 218 223 220 211 208 212 212 208 209 212 217 230 238 228 221 223
33 56 63 56 280 307 346 331 316 319 323 316 315 319 322 322 321 317 314 313 311 309 310 314 318 320 320 320 320 317 313 314 316 315 316 315 310 306 306 304 300 298 296 294 293 292 290 291 294 291 290 295 290 275 267 272 277 276 275 280 285 290 296 293 287 276 258 235 214 207 215 231 239 231 213 203 209 212 212 214 214 214 220 226 222 221 223
19 58 61 322 283 299 309 303 298 299 314 317 315 315 317 318 316 314 312 309 308 308 309 316 322 324 322 320 320 317 314 315 317 318 317 314 309 307 305 302 300 298 297 294 292 290 289 291 291 289 291 298 295 282 271 268 271 270 267 269 272 274 274 276 280 279 270 254 233 216 214 225 237 243 229 208 207 209 210 215 218 216 216 220 218 215 214
37 66 232 251 255 264 283 296 301 312 322 320 314 312 315 315 311 308 306 305 305 309 313 319 323 323 322 322 322 320 316 314 316 317 315 312 310 308 305 303 301 297 295 292 288 286 288 290 291 290 291 294 294 284 273 267 266 268 269 267 262 257 257 259 262 261 255 247 237 229 224 223 231 247 240 218 215 212 204 207 219 223 223 225 223 216 210
99 249 268 270 266 266 307 325 325 323 321 317 313 314 316 314 310 307 306 307 309 314 319 322 322 323 326 327 326 322 318 315 314 315 315 314 310 306 304 302 299 296 293 290 285 284 287 289 289 286 281 279 282 278 268 263 263 264 266 269 265 251 246 248 246 237 236 232 222 218 220 221 228 239 230 217 226 230 213 202 207 216 220 222 222 219 213
202 255 281 299 310 323 331 323 313 312 313 313 316 319 317 316 314 311 311 315 318 322 325 325 324 326 328 329 326 322 318 316 315 315 316 314 311 308 306 302 298 297 296 291 287 287 287 286 284 280 271 265 263 260 258 258 259 258 257 260 261 252 240 237 235 230 231 221 206 202 206 208 211 223 221 210 218 238 236 219 208 209 210 208 211 216 216
225 259 285 307 310 308 308 306 304 309 314 316 320 321 319 319 319 316 318 322 323 325 326 325 326 328 328 329 327 322 318 317 315 314 314 313 310 309 308 304 300 298 295 291 289 288 285 283 281 278 273 266 256 250 250 251 252 253 252 251 254 256 246 234 227 226 233 229 206 194 196 200 201 213 221 213 209 227 236 230 217 212 205 188 189 205 213
205 255 280 296 299 297 299 304 310 316 317 318 320 319 318 320 319 317 320 323 322 323 325 326 328 331 330 330 328 322 317 316 314 314 315 314 311 310 308 304 301 299 294 291 290 287 285 283 278 274 274 273 265 258 255 251 247 246 244 244 248 254 252 242 231 226 227 226 214 197 193 199 202 205 215 218 215 223 232 231 223 221 215 190 180 193 203
256 275 282 292 302 305 310 315 317 318 318 318 319 318 319 321 319 318 322 322 320 322 325 326 329 332 332 331 328 323 319 317 315 316 315 311 309 313 313 306 300 298 297 296 295 293 293 289 281 276 276 276 273 271 267 259 251 245 242 241 242 243 245 245 243 239 231 220 212 204 196 199 204 205 211 216 217 222 229 230 225 227 226 209 197 196 193
297 295 297 308 315 316 320 325 324 321 320 320 318 318 320 321 319 318 321 321 318 321 325 328 330 331 331 330 328 325 324 321 318 317 316 313 314 320 321 313 303 295 294 296 297 298 297 292 286 284 280 273 270 269 265 259 254 246 241 240 239 238 241 241 240 243 242 230 217 210 203 200 203 206 212 217 218 220 226 227 223 221 219 214 209 198 179
311 313 318 326 328 324 325 326 323 320 320 319 318 318 319 318 316 317 319 317 316 320 326 328 329 329 328 328 326 326 326 324 320 319 320 321 322 321 319 316 309 300 294 294 296 296 293 288 287 289 287 280 272 264 256 253 252 250 246 244 240 235 231 231 233 238 241 237 229 224 219 213 209 210 213 216 219 222 225 227 227 226 223 223 221 200 181
315 317 320 323 322 318 318 320 319 318 318 317 317 318 319 319 318 317 317 314 314 319 325 326 326 325 324 324 326 328 329 328 325 325 328 329 328 326 324 318 311 305 301 299 297 294 291 288 288 293 295 290 283 274 266 258 251 246 242 239 236 232 227 225 226 230 235 237 237 235 230 224 227 232 226 215 212 219 221 222 228 231 228 230 225 202 195
309 311 314 315 314 314 314 315 316 316 316 317 317 318 319 319 318 316 314 311 312 318 323 325 325 322 321 324 329 331 330 328 327 327 329 329 328 328 328 322 314 310 310 308 303 297 293 292 294 300 301 294 288 282 277 273 269 265 257 248 239 232 224 217 217 225 232 237 240 243 242 235 233 242 240 222 208 213 213 210 218 223 221 224 218 196 196
310 311 314 314 313 312 311 311 313 314 314 313 314 315 315 315 314 313 312 310 313 319 324 325 324 322 322 328 331 328 326 327 327 326 327 325 321 322 326 326 324 320 316 314 312 307 303 303 308 312 307 299 295 290 283 280 286 293 293 284 267 246 225 215 219 228 234 235 237 246 253 246 232 237 244 238 220 216 213 207 213 220 222 226 221 197 187
316 315 314 314 313 311 311 312 313 312 310 309 310 309 309 308 308 310 310 311 315 322 326 326 323 320 322 327 327 323 324 330 328 325 326 328 329 331 335 337 335 329 321 321 324 321 316 313 313 315 312 304 299 295 285 277 280 284 284 283 280 270 246 230 227 225 224 228 235 245 256 259 249 242 244 242 231 222 219 213 215 226 233 238 240 222 200
318 318 317 316 313 310 311 313 313 311 311 310 308 305 303 303 304 306 308 310 316 322 325 324 321 319 323 328 328 327 333 335 328 324 328 334 337 338 342 347 348 342 334 334 336 332 326 321 316 313 310 300 292 290 285 282 284 284 281 275 274 273 260 239 231 226 221 223 227 229 239 254 261 258 251 246 236 221 216 215 219 238 248 245 241 239 233
320 324 323 320 316 312 314 316 316 316 315 312 308 305 303 302 302 303 305 310 318 324 325 324 322 322 327 332 332 332 335 334 328 329 335 340 341 341 346 355 356 349 342 342 344 341 338 337 332 320 308 298 293 291 293 296 296 293 286 277 270 268 262 244 232 226 223 224 226 221 222 236 249 253 251 249 242 222 212 210 216 231 241 243 239 239 240
322 324 322 319 316 316 318 318 318 318 317 312 306 303 304 303 302 303 306 313 321 325 325 325 326 325 328 332 333 333 333 331 329 332 337 341 343 347 352 355 352 348 347 349 350 350 351 353 350 342 331 320 312 306 305 306 303 292 281 277 273 270 266 255 240 227 216 210 212 215 218 229 238 240 235 230 229 231 224 212 208 215 229 245 251 250 246
317 318 319 318 317 317 318 318 315 314 314 311 306 304 303 301 300 302 306 314 320 322 323 327 328 325 325 331 336 337 335 333 333 336 341 346 349 353 354 349 346 347 352 359 5 9 13 14 10 4 357 348 336 325 317 311 304 294 283 279 276 271 267 262 257 250 233 209 202 205 210 217 225 226 219 210 212 217 215 209 206 206 212 229 242 248 249
319 319 320 319 317 317 317 315 311 309 310 311 310 308 306 302 298 298 301 308 316 319 323 327 328 323 326 335 340 341 341 343 341 342 347 353 358 0 355 342 340 350 359 6 12 15 16 16 15 10 4 357 350 342 331 319 309 300 289 283 281 277 274 272 266 262 260 251 232 222 219 218 221 224 221 215 214 212 206 207 211 211 213 223 237 248 253
320 321 319 316 317 317 315 311 308 307 309 311 312 312 309 305 298 294 297 306 316 321 323 326 327 327 333 341 344 342 346 351 348 346 350 357 4 9 3 350 346 356 4 6 7 10 12 13 13 9 3 1 1 357 350 341 331 322 313 305 294 282 275 276 273 265 262 261 256 253 250 245 241 240 237 236 236 232 226 231 238 238 237 244 254 259 269
317 319 317 315 314 313 310 307 307 308 310 312 312 310 308 303 297 294 297 306 316 321 320 321 325 329 336 345 347 345 348 355 355 352 355 358 1 6 4 358 354 358 2 1 3 8 11 12 12 11 10 13 14 12 9 5 357 350 346 341 329 311 293 282 276 273 275 274 268 266 266 266 265 265 263 263 265 265 266 272 279 284 296 321 341 12 20
309 312 312 311 309 307 306 307 308 309 309 308 305 304 304 302 296 294 297 303 312 317 317 316 321 328 337 347 348 343 345 355 2 2 2 1 356 355 357 358 358 358 357 0 6 9 9 12 16 18 18 20 21 20 19 15 9 5 3 0 354 346 335 322 304 283 270 268 271 277 277 273 276 284 290 293 294 296 312 354 22 39 46 50 54 51 45
303 305 306 305 304 302 302 303 301 301 303 305 305 306 309 307 300 296 298 302 308 313 313 309 314 328 339 347 347 343 346 359 14 17 14 7 356 350 350 354 357 358 358 2 10 12 11 14 21 24 24 25 26 26 24 21 19 17 14 12 13 12 5 356 352 344 323 300 291 285 280 294 335 11 28 37 46 56 62 62 63 65 66 69 70 69 67
299 299 301 303 301 299 299 298 295 296 303 311 316 317 317 314 309 305 304 307 310 312 312 310 315 328 343 350 349 350 352 357 8 20 20 11 359 352 351 353 357 0 1 3 10 14 15 17 21 24 26 28 29 30 28 27 27 27 25 24 26 28 27 26 30 39 49 61 74 93 105 99 88 82 76 73 76 81 83 82 82 82 83 83 82 79 77
293 293 297 299 298 297 296 295 292 295 305 317 321 319 316 316 314 309 308 312 310 303 299 306 319 334 350 351 345 348 355 357 1 10 13 7 359 356 355 354 356 1 3 3 4 11 15 17 20 23 26 29 31 32 32 31 31 32 33 34 37 40 41 42 44 49 60 74 85 93 97 98 100 102 97 90 87 89 91 91 89 88 88 90 90 87 82
286 286 292 296 296 294 294 294 295 301 310 318 320 318 316 314 311 307 310 318 314 302 297 309 328 342 347 338 332 342 3 11 10 6 4 1 359 358 357 355 356 1 5 5 3 6 11 14 18 23 27 30 32 35 36 35 32 33 36 40 44 49 53 56 57 61 69 77 81 83 84 83 84 88 90 90 88 89 91 92 92 94 97 98 96 91 86
281 282 290 296 296 293 292 294 300 307 313 317 318 316 312 309 309 312 320 323 314 303 305 320 335 345 347 342 347 7 24 26 21 18 13 3 356 356 358 357 357 0 6 9 7 8 12 15 17 20 25 28 31 35 39 39 35 33 37 42 45 48 52 56 60 65 72 76 78 78 79 79 79 84 88 90 90 91 93 94 95 96 98 96 93 90 88
274 278 287 293 293 289 286 287 290 295 300 306 311 312 311 308 306 309 317 316 305 301 309 327 340 346 353 358 11 30 36 27 20 21 15 360 350 357 8 6 0 2 12 18 16 13 16 19 20 21 24 29 30 33 36 39 37 35 36 40 42 46 49 51 54 59 65 71 75 78 81 83 85 88 89 89 89 91 92 93 92 92 92 91 91 90 90
270 277 285 288 288 286 284 282 282 283 288 298 307 315 318 313 307 306 311 303 292 298 315 336 342 340 354 16 28 33 31 20 7 3 359 352 350 3 19 19 10 8 17 24 24 21 21 24 25 25 28 33 36 37 37 37 36 36 37 39 40 44 48 51 52 56 60 64 68 74 79 84 86 88 88 87 88 89 90 90 89 89 88 86 87 89 91